Location: Peach Mountain Observatory
(42.3967°N, 83.9367°W)
Time: 02:38:44
(UTC-05:00)

Vanguard 2 - Pass Details

Date: 01 February 2020
Orbit: 552 x 2939 km, 32.9° (Epoch: 26 February)

Event Time Altitude Azimuth Distance (km) Brightness Sun altitude
Rises 06:00:18 0° 190° (S) 6,593 12.2 -20.4°
Reaches altitude 10° 06:06:57 10° 174° (S) 5,734 12.1 -19.2°
Maximum altitude 06:16:56 18° 140° (SE) 5,044 12.3 -17.4°
Drops below altitude 10° 06:26:16 10° 105° (ESE) 5,385 13.2 -15.7°
Sets 06:32:02 0° 89° (E) 6,062 13.8 -14.6°
